Location: Azat
(46.0765°N, 1.7600°E)
Time: 11:47:40
(UTC+00:00)

Cosmos 1825 Rocket - Pass Details

Date: 09 April 2020
Orbit: 604 x 631 km, 82.5° (Epoch: 03 June)

Event Time Altitude Azimuth Distance (km) Brightness Sun altitude
Rises 19:03:01 0° 352° (N) 2,904 7.4 -5.9°
Reaches altitude 10° 19:05:16 10° 354° (N) 1,989 6.5 -6.3°
Maximum altitude 19:09:41 77° 80° (E) 634 3.5 -7.0°
Drops below altitude 10° 19:14:01 10° 167° (SSE) 1,956 5.8 -7.7°
Sets 19:16:13 0° 169° (S) 2,852 6.7 -8.1°
